Estación de La capilla

Ultimos registro cada 15 minutos 55
Estación Fecha / Hora Temperatura Humedad Lluvia Velocidad Dirección Radiación Presion
55 La capilla 06-05-2026 13:30 15,8 80 0 2,2 52 466 1085,2
54 La capilla 06-05-2026 13:15 15,2 84 0,2 1,3 122 236 1084,8
53 La capilla 06-05-2026 13:00 14,6 89 0 0 360 487 1084,5
52 La capilla 06-05-2026 12:45 13,9 94 0 0 147 599 1084,3
51 La capilla 06-05-2026 12:30 13,1 97 0 0 157 251 1083,9
50 La capilla 06-05-2026 12:15 12,5 98 0 0 157 137 1083,8
49 La capilla 06-05-2026 12:00 12,1 98 0 0 360 151 1083,3
48 La capilla 06-05-2026 11:45 12,2 99 0 0,9 360 77 1083,1
47 La capilla 06-05-2026 11:30 12,3 99 0 0,9 360 84 1082,8
46 La capilla 06-05-2026 11:15 12,8 99 0 0,4 360 102 1082,3
45 La capilla 06-05-2026 11:00 13,6 100 0 0 360 84 1081,7
44 La capilla 06-05-2026 10:45 13,6 100 0 0 360 95 1081,1
43 La capilla 06-05-2026 10:30 13,3 100 0 0 360 223 1081
42 La capilla 06-05-2026 10:15 12,8 100 0 0 360 156 1080,9
41 La capilla 06-05-2026 10:00 12,6 100 0 0,4 360 77 1080,7
40 La capilla 06-05-2026 09:45 12,3 100 0 0 360 42 1080,5
39 La capilla 06-05-2026 09:30 12,2 100 0,4 0 360 33 1080,1
38 La capilla 06-05-2026 09:15 12,2 100 0,4 0,9 360 37 1079,8
37 La capilla 06-05-2026 09:00 12,2 100 0,6 0,4 360 12 1079,7
36 La capilla 06-05-2026 08:45 12,3 100 1,6 0,9 360 0 1079,5
35 La capilla 06-05-2026 08:30 12,3 100 0,4 0 360 0 1079,5
34 La capilla 06-05-2026 08:15 12,3 100 0 0 360 0 1079,2
33 La capilla 06-05-2026 08:00 12,3 100 0 0,4 360 0 1079,1
32 La capilla 06-05-2026 07:45 12,3 100 0 0,9 360 0 1079,2
31 La capilla 06-05-2026 07:30 12,2 100 0,4 0,9 360 0 1079,2
30 La capilla 06-05-2026 07:15 12,2 100 0,6 0,4 360 0 1078,9
29 La capilla 06-05-2026 07:00 12,2 100 0 1,8 360 0 1079
28 La capilla 06-05-2026 06:45 12,2 100 0,4 0,9 360 0 1079
27 La capilla 06-05-2026 06:30 12,2 100 0 0,4 360 0 1079,1
26 La capilla 06-05-2026 06:15 12,1 100 0,4 0 360 0 1079,1
25 La capilla 06-05-2026 06:00 12,2 100 3,4 0 360 0 1078,9
24 La capilla 06-05-2026 05:45 12,3 100 1,2 0 360 0 1078,9
23 La capilla 06-05-2026 05:30 12,3 100 0,6 0 360 0 1079,4
22 La capilla 06-05-2026 05:15 12,4 100 2,2 0,4 360 0 1079,4
21 La capilla 06-05-2026 05:00 12,3 100 2,2 0 360 0 1079,4
20 La capilla 06-05-2026 04:45 12,3 100 0,4 0,9 360 0 1079,3
19 La capilla 06-05-2026 04:30 12,3 100 0,4 0,9 360 0 1079,2
18 La capilla 06-05-2026 04:15 12,3 100 0,2 0,4 360 0 1079,4
17 La capilla 06-05-2026 04:00 12,2 100 0,4 0,4 360 0 1079,8
16 La capilla 06-05-2026 03:45 12,2 100 0,2 0 360 0 1079,8
15 La capilla 06-05-2026 03:30 12,2 100 0,2 0 360 0 1080
14 La capilla 06-05-2026 03:15 12,2 100 0,2 0 360 0 1080,3
13 La capilla 06-05-2026 03:00 12,2 100 0,4 0 360 0 1080,5
12 La capilla 06-05-2026 02:45 12,2 100 0,2 0 360 0 1080,9
11 La capilla 06-05-2026 02:30 12,2 100 0,4 0,4 360 0 1080,9
10 La capilla 06-05-2026 02:15 12,1 100 1,6 0 360 0 1081
9 La capilla 06-05-2026 02:00 12 100 0,4 0,4 360 0 1081,1
8 La capilla 06-05-2026 01:45 12 100 0,8 0 360 0 1081
7 La capilla 06-05-2026 01:30 11,9 100 0,4 0 360 0 1081,2
6 La capilla 06-05-2026 01:15 11,9 100 0,2 0 360 0 1081
5 La capilla 06-05-2026 01:00 11,8 100 0 0 360 0 1081,2
4 La capilla 06-05-2026 00:45 11,8 99 0,6 0,4 360 0 1081,3
3 La capilla 06-05-2026 00:30 11,9 100 0,6 0 360 0 1081,9
2 La capilla 06-05-2026 00:15 11,9 100 1,2 0,9 360 0 1082,4
1 La capilla 06-05-2026 00:00 11,9 99 1,6 0 360 0 1082,3